This is the latest recevied weather packets stored in our database for station/object WX6HNX-5. If no packets are shown the sender has not sent any weather packets the latest 1 day(s).
| Time | Temp. | Humidity | Pressure | Rain* | Wind** | Luminosity | Snow |
|---|---|---|---|---|---|---|---|
| 1778004269 | 15° C | 75% | 1015.3 hPa | 0 mm | 0 m/s | - | - |
| 1778003970 | 15° C | 76% | 1015.2 hPa | 0 mm | 0.45 m/s, 336° | - | - |
| 1778003669 | 14.44° C | 77% | 1015.2 hPa | 0 mm | 0 m/s | - | - |
| 1778003369 | 14.44° C | 77% | 1015.3 hPa | 0 mm | 1.79 m/s, 274° | - | - |
| 1778003070 | 13.89° C | 79% | 1015.3 hPa | 0 mm | 0 m/s | - | - |
| 1778002770 | 13.89° C | 80% | 1015.2 hPa | 0 mm | 0.89 m/s, 318° | - | - |
| 1778002470 | 13.89° C | 82% | 1015.2 hPa | 0 mm | 0.89 m/s, 324° | - | - |
| 1778002170 | 13.33° C | 82% | 1015.2 hPa | 0 mm | 0.89 m/s, 274° | - | - |
| 1778001569 | 13.33° C | 83% | 1015.2 hPa | 0 mm | 0.89 m/s, 316° | - | - |
| 1778001269 | 13.33° C | 82% | 1015.2 hPa | 0 mm | 0.89 m/s, 346° | - | - |
| 1778000969 | 13.33° C | 82% | 1015.2 hPa | 0 mm | 0.89 m/s, 21° | - | - |
| 1778000669 | 13.33° C | 81% | 1015.2 hPa | 0 mm | 1.79 m/s, 1° | - | - |
| 1778000370 | 13.33° C | 80% | 1015.1 hPa | 0 mm | 1.79 m/s, 351° | - | - |
| 1778000069 | 13.33° C | 80% | 1015 hPa | 0 mm | 1.79 m/s, 319° | - | - |
| 1777999770 | 13.33° C | 80% | 1015 hPa | 0 mm | 1.79 m/s, 315° | - | - |
| 1777999469 | 13.33° C | 79% | 1015 hPa | 0 mm | 1.79 m/s, 310° | - | - |
| 1777999169 | 13.89° C | 78% | 1015 hPa | 0 mm | 3.13 m/s, 313° | - | - |
| 1777998869 | 13.89° C | 77% | 1014.9 hPa | 0 mm | 3.13 m/s, 314° | - | - |
| 1777998569 | 13.89° C | 75% | 1014.8 hPa | 0 mm | 2.68 m/s, 321° | - | - |
| 1777998270 | 13.89° C | 75% | 1014.8 hPa | 0 mm | 1.79 m/s, 338° | - | - |
| 1777997969 | 13.89° C | 75% | 1014.6 hPa | 0 mm | 1.79 m/s, 338° | - | - |
| 1777997669 | 13.89° C | 75% | 1014.7 hPa | 0 mm | 3.13 m/s, 314° | - | - |
| 1777997369 | 14.44° C | 74% | 1014.6 hPa | 0 mm | 3.58 m/s, 316° | - | - |
| 1777997069 | 14.44° C | 74% | 1014.6 hPa | 0 mm | 1.79 m/s, 333° | - | - |
| 1777996769 | 14.44° C | 73% | 1014.5 hPa | 0 mm | 2.24 m/s, 329° | - | - |
* Rain latest hour (hover to see other rain measurements)
** Current wind speed in m/s (hover to see current wind gust speed)